Date String (YYYY-MM-DD hh:mm:ss) UTC,Instrument flags,Ambient pressure (hPa),Sample flow (lpm),Bypass flow (lpm),Sample temperature (°C),Ambient temperature (°C),ASC tube jacket temperature (°C),LED temperature (°C),Box temperature (°C),Sample RH (%),Span deviation,Mass concentration (μg/m³),Mass concentration (μg/m³),Mass concentration (μg/m³)
DateTimeUTC,F1_M11,P_M11,Q1_M11,Q2_M11,T1_M11,T2_M11,T3_M11,T4_M11,T5_M11,U1_M11,ZSPAN_M11,X2_M11,X0_M11,X1_M11
2022-03-19 02:00:00,,0825.3,4.98,0.00,24.3,23.3,00.0,33.2,26.0,05.8,0000.0,0002.69,0007.07,0001.56
2022-03-19 02:01:00,,0825.3,5.00,0.00,24.3,23.3,00.0,33.2,26.0,06.0,0000.0,0002.73,0007.21,0001.57
2022-03-19 02:02:00,,0825.3,5.00,0.00,24.3,23.3,00.0,33.2,26.0,05.9,0000.0,0002.77,0007.40,0001.57
2022-03-19 02:03:00,,0825.3,5.01,0.00,24.3,23.3,00.0,33.2,26.0,05.9,0000.0,0002.74,0007.71,0001.55
2022-03-19 02:04:00,,0825.4,4.99,0.00,24.3,23.3,00.0,33.2,26.0,05.8,0000.0,0002.74,0007.80,0001.55
2022-03-19 02:05:00,,0825.3,5.00,0.00,24.3,23.4,00.0,33.2,26.0,05.9,0000.0,0002.68,0007.63,0001.56
2022-03-19 02:06:00,,0825.3,5.02,0.00,24.3,23.4,00.0,33.2,26.1,06.1,0000.0,0002.63,0007.38,0001.56
2022-03-19 02:07:00,,0825.4,4.99,0.00,24.3,23.4,00.0,33.2,26.1,06.4,0000.0,0002.69,0007.54,0001.57
2022-03-19 02:08:00,,0825.4,4.99,0.00,24.3,23.4,00.0,33.2,26.1,06.4,0000.0,0002.66,0006.36,0001.57
2022-03-19 02:09:00,,0825.3,5.00,0.00,24.3,23.4,00.0,33.3,26.1,06.1,0000.0,0002.70,0006.45,0001.59
2022-03-19 02:10:00,,0825.4,5.02,0.00,24.3,23.4,00.0,33.3,26.0,05.8,0000.0,0002.73,0007.09,0001.61
2022-03-19 02:11:00,,0825.4,5.00,0.00,24.3,23.4,00.0,33.3,26.1,06.0,0000.0,0002.72,0006.96,0001.62
2022-03-19 02:12:00,,0825.4,5.00,0.00,24.3,23.4,00.0,33.3,26.1,05.9,0000.0,0002.67,0006.85,0001.62
2022-03-19 02:13:00,,0825.4,4.99,0.00,24.3,23.4,00.0,33.3,26.0,06.0,0000.0,0002.68,0006.63,0001.63
2022-03-19 02:14:00,,0825.4,5.01,0.00,24.3,23.3,00.0,33.3,26.0,06.0,0000.0,0002.72,0006.10,0001.66
2022-03-19 02:15:00,,0825.4,5.01,0.00,24.3,23.3,00.0,33.3,26.0,06.0,0000.0,0002.70,0005.88,0001.67
2022-03-19 02:16:00,,0825.4,4.98,0.00,24.3,23.3,00.0,33.3,26.0,06.0,0000.0,0002.77,0006.07,0001.66
2022-03-19 02:17:00,,0825.4,5.01,0.00,24.3,23.3,00.0,33.3,26.0,06.0,0000.0,0002.85,0006.28,0001.66
2022-03-19 02:18:00,,0825.4,4.99,0.00,24.3,23.3,00.0,33.3,26.1,06.0,0000.0,0002.82,0006.12,0001.65
2022-03-19 02:19:00,,0825.4,4.99,0.00,24.3,23.3,00.0,33.3,26.1,05.9,0000.0,0002.80,0006.03,0001.64
2022-03-19 02:20:00,,0825.5,5.01,0.00,24.3,23.3,00.0,33.3,26.1,05.9,0000.0,0002.73,0007.21,0001.63
2022-03-19 02:21:00,,0825.5,4.99,0.00,24.3,23.3,00.0,33.3,26.1,06.1,0000.0,0002.68,0006.38,0001.62
2022-03-19 02:22:00,,0825.5,4.99,0.00,24.3,23.3,00.0,33.3,26.1,06.1,0000.0,0002.70,0006.64,0001.61
2022-03-19 02:23:00,,0825.5,5.01,0.00,24.3,23.4,00.0,33.3,26.1,06.0,0000.0,0002.73,0006.74,0001.61
2022-03-19 02:24:00,,0825.5,5.00,0.00,24.3,23.4,00.0,33.3,26.1,06.0,0000.0,0002.76,0006.77,0001.59
2022-03-19 02:25:00,,0825.5,5.00,0.00,24.3,23.4,00.0,33.3,26.1,06.0,0000.0,0002.75,0006.78,0001.57
2022-03-19 02:26:00,,0825.5,5.01,0.00,24.4,23.4,00.0,33.3,26.2,06.0,0000.0,0002.73,0006.74,0001.56
2022-03-19 02:27:00,,0825.5,4.99,0.00,24.4,23.4,00.0,33.3,26.1,06.0,0000.0,0002.72,0006.64,0001.55
2022-03-19 02:28:00,,0825.5,4.99,0.00,24.4,23.4,00.0,33.3,26.1,06.0,0000.0,0002.69,0006.49,0001.54
2022-03-19 02:29:00,,0825.5,4.99,0.00,24.4,23.4,00.0,33.3,26.1,06.0,0000.0,0002.67,0006.46,0001.54
2022-03-19 02:30:00,,0825.6,5.01,0.00,24.4,23.4,00.0,33.3,26.1,06.1,0000.0,0002.72,0006.73,0001.54
2022-03-19 02:31:00,,0825.6,4.99,0.00,24.3,23.4,00.0,33.3,26.1,05.9,0000.0,0002.75,0005.56,0001.53
2022-03-19 02:32:00,,0825.6,5.00,0.00,24.3,23.4,00.0,33.3,26.1,05.8,0000.0,0002.77,0005.40,0001.54
2022-03-19 02:33:00,,0825.6,5.01,0.00,24.3,23.4,00.0,33.3,26.1,05.9,0000.0,0002.74,0005.15,0001.54
2022-03-19 02:34:00,,0825.6,4.99,0.00,24.3,23.4,00.0,33.3,26.1,06.1,0000.0,0002.79,0005.19,0001.55
2022-03-19 02:35:00,,0825.6,5.00,0.00,24.3,23.4,00.0,33.3,26.1,06.0,0000.0,0002.76,0005.16,0001.56
2022-03-19 02:36:00,,0825.6,4.99,0.00,24.3,23.4,00.0,33.3,26.1,06.0,0000.0,0002.73,0005.10,0001.58
2022-03-19 02:37:00,,0825.6,4.99,0.00,24.3,23.4,00.0,33.3,26.1,06.1,0000.0,0002.80,0005.32,0001.59
2022-03-19 02:38:00,,0825.6,5.01,0.00,24.3,23.4,00.0,33.3,26.1,06.0,0000.0,0002.88,0005.57,0001.60
2022-03-19 02:39:00,,0825.6,4.99,0.00,24.3,23.4,00.0,33.3,26.1,06.2,0000.0,0002.85,0005.53,0001.60
2022-03-19 02:40:00,,0825.6,5.00,0.00,24.3,23.3,00.0,33.3,26.0,06.3,0000.0,0002.85,0005.70,0001.61
2022-03-19 02:41:00,,0825.6,5.00,0.00,24.3,23.3,00.0,33.3,26.0,06.0,0000.0,0002.89,0006.20,0001.62
2022-03-19 02:42:00,,0825.6,4.99,0.00,24.3,23.3,00.0,33.3,26.0,05.9,0000.0,0002.93,0006.37,0001.63
2022-03-19 02:43:00,,0825.6,5.01,0.00,24.3,23.3,00.0,33.3,26.0,06.0,0000.0,0002.92,0006.30,0001.62
2022-03-19 02:44:00,,0825.7,4.99,0.00,24.3,23.3,00.0,33.3,26.0,06.0,0000.0,0002.94,0006.37,0001.60
2022-03-19 02:45:00,,0825.7,5.00,0.00,24.2,23.3,00.0,33.3,26.0,06.0,0000.0,0002.89,0007.22,0001.59
2022-03-19 02:46:00,,0825.7,5.00,0.00,24.2,23.3,00.0,33.3,26.0,06.0,0000.0,0002.86,0007.47,0001.56
2022-03-19 02:47:00,,0825.8,5.01,0.00,24.2,23.3,00.0,33.3,26.0,06.3,0000.0,0002.82,0007.43,0001.54
2022-03-19 02:48:00,,0825.8,4.99,0.00,24.2,23.3,00.0,33.3,26.1,06.5,0000.0,0002.84,0007.47,0001.53
2022-03-19 02:49:00,,0825.8,5.00,0.00,24.3,23.3,00.0,33.3,26.1,06.6,0000.0,0002.71,0007.33,0001.51
2022-03-19 02:50:00,,0825.8,5.01,0.00,24.3,23.3,00.0,33.3,26.1,06.6,0000.0,0002.70,0007.33,0001.52
2022-03-19 02:51:00,,0825.8,4.99,0.00,24.3,23.3,00.0,33.3,26.1,06.5,0000.0,0002.74,0007.32,0001.52
2022-03-19 02:52:00,,0825.9,5.01,0.00,24.3,23.4,00.0,33.3,26.1,06.4,0000.0,0002.71,0006.71,0001.51
2022-03-19 02:53:00,,0825.9,5.00,0.00,24.3,23.4,00.0,33.3,26.1,06.2,0000.0,0002.69,0006.56,0001.52
2022-03-19 02:54:00,,0825.9,4.99,0.00,24.3,23.4,00.0,33.3,26.1,06.3,0000.0,0002.70,0006.58,0001.51
2022-03-19 02:55:00,,0825.9,5.00,0.00,24.3,23.4,00.0,33.3,26.1,06.5,0000.0,0002.68,0006.49,0001.54
2022-03-19 02:56:00,,0825.9,5.00,0.00,24.3,23.4,00.0,33.3,26.1,06.3,0000.0,0002.70,0005.81,0001.55
2022-03-19 02:57:00,,0825.9,4.99,0.00,24.3,23.4,00.0,33.3,26.2,06.5,0000.0,0002.69,0005.59,0001.56
2022-03-19 02:58:00,,0825.9,5.00,0.00,24.3,23.4,00.0,33.3,26.1,06.8,0000.0,0002.73,0006.07,0001.56
2022-03-19 02:59:00,,0825.9,5.00,0.00,24.3,23.4,00.0,33.3,26.2,06.4,0000.0,0002.69,0006.04,0001.57
